Time,TemperatureF,DewpointF,PressureIn,WindDirection,WindDirectionDegrees,WindSpeedMPH,WindSpeedGustMPH,Humidity,HourlyPrecipIn,Conditions,Clouds,dailyrainin,SoftwareType,DateUTC
2013-05-15 12:01:00,78.5,65.3,30.11,South,172,2.0,0.0,64,0.00,,,0.00,WeatherTracker,2013-05-15 17:01:00,
2013-05-15 12:05:00,78.1,63.5,30.11,WSW,238,2.0,10.0,61,0.00,,,0.00,WeatherTracker,2013-05-15 17:05:00,
2013-05-15 12:10:00,77.7,65.0,30.11,SSW,200,3.0,11.0,65,0.00,,,0.00,WeatherTracker,2013-05-15 17:10:00,
2013-05-15 12:15:00,77.7,64.5,30.10,SW,229,7.0,11.0,64,0.00,,,0.00,WeatherTracker,2013-05-15 17:15:00,
2013-05-15 12:20:00,77.7,65.0,30.10,South,189,0.0,7.0,65,0.00,,,0.00,WeatherTracker,2013-05-15 17:20:00,
2013-05-15 12:25:00,77.9,65.6,30.10,South,182,0.0,7.0,66,0.00,,,0.00,WeatherTracker,2013-05-15 17:25:00,
2013-05-15 12:30:00,77.9,65.6,30.10,SSW,192,0.0,7.0,66,0.00,,,0.00,WeatherTracker,2013-05-15 17:30:00,
2013-05-15 12:35:00,77.9,65.6,30.10,SSW,207,1.0,7.0,66,0.00,,,0.00,WeatherTracker,2013-05-15 17:35:00,
2013-05-15 12:40:00,77.4,64.2,30.10,SSW,194,0.0,7.0,64,0.00,,,0.00,WeatherTracker,2013-05-15 17:40:00,
2013-05-15 12:45:00,77.2,64.1,30.09,South,170,9.0,9.0,64,0.00,,,0.00,WeatherTracker,2013-05-15 17:45:00,
2013-05-15 12:56:00,76.8,64.6,30.09,SW,223,3.0,12.0,66,0.00,,,0.00,WeatherTracker,2013-05-15 17:56:00,
2013-05-15 13:05:00,77.2,65.4,30.09,SSW,193,0.0,12.0,67,0.00,,,0.00,WeatherTracker,2013-05-15 18:05:00,
2013-05-15 13:10:00,76.8,64.6,30.09,SSE,167,6.0,9.0,66,0.00,,,0.00,WeatherTracker,2013-05-15 18:10:00,
2013-05-15 13:20:00,76.0,64.7,30.08,SW,218,0.0,11.0,68,0.00,,,0.00,WeatherTracker,2013-05-15 18:20:00,
2013-05-15 13:30:00,75.8,64.9,30.07,SSW,194,0.0,13.0,69,0.00,,,0.00,WeatherTracker,2013-05-15 18:30:00,
2013-05-15 13:40:00,75.6,65.1,30.07,SSW,200,0.0,8.0,70,0.00,,,0.00,WeatherTracker,2013-05-15 18:40:00,
2013-05-15 13:50:00,75.1,64.6,30.06,South,175,0.0,10.0,70,0.00,,,0.00,WeatherTracker,2013-05-15 18:50:00,
2013-05-15 13:55:00,74.9,64.8,30.06,WSW,237,0.0,10.0,71,0.00,,,0.00,WeatherTracker,2013-05-15 18:55:00,
2013-05-15 14:00:00,74.7,64.7,30.05,SSE,167,0.0,7.0,71,0.00,,,0.00,WeatherTracker,2013-05-15 19:00:00,
2013-05-15 14:10:00,74.6,65.0,30.05,South,175,0.0,6.0,72,0.00,,,0.00,WeatherTracker,2013-05-15 19:10:00,
2013-05-15 14:15:00,74.7,65.5,30.05,South,169,0.0,6.0,73,0.00,,,0.00,WeatherTracker,2013-05-15 19:15:00,
2013-05-15 14:20:00,74.6,65.0,30.05,South,171,2.0,9.0,72,0.00,,,0.00,WeatherTracker,2013-05-15 19:20:00,
2013-05-15 14:25:00,74.6,65.0,30.05,South,184,2.0,9.0,72,0.00,,,0.00,WeatherTracker,2013-05-15 19:25:00,
2013-05-15 14:35:00,74.4,65.2,30.03,SSW,196,3.0,8.0,73,0.00,,,0.00,WeatherTracker,2013-05-15 19:35:00,
2013-05-15 14:40:00,74.4,65.6,30.03,South,186,0.0,9.0,74,0.00,,,0.00,WeatherTracker,2013-05-15 19:40:00,
2013-05-15 14:45:00,74.4,65.9,30.03,South,187,0.0,9.0,75,0.00,,,0.00,WeatherTracker,2013-05-15 19:45:00,
2013-05-15 14:50:00,74.6,65.8,30.03,SSE,156,0.0,5.0,74,0.00,,,0.00,WeatherTracker,2013-05-15 19:50:00,
2013-05-15 14:55:00,74.4,65.6,30.03,SSW,199,0.0,5.0,74,0.00,,,0.00,WeatherTracker,2013-05-15 19:55:00,
2013-05-15 15:05:00,74.4,64.4,30.02,South,186,1.0,9.0,71,0.00,,,0.00,WeatherTracker,2013-05-15 20:05:00,
2013-05-15 15:15:00,74.4,65.6,30.02,South,180,0.0,10.0,74,0.00,,,0.00,WeatherTracker,2013-05-15 20:15:00,
2013-05-15 15:20:00,74.2,65.4,30.02,South,178,0.0,9.0,74,0.00,,,0.00,WeatherTracker,2013-05-15 20:20:00,
2013-05-15 15:30:00,74.4,65.2,30.01,ESE,122,0.0,7.0,73,0.00,,,0.00,WeatherTracker,2013-05-15 20:30:00,
2013-05-15 15:40:00,74.2,65.4,30.01,SSE,167,0.0,10.0,74,0.00,,,0.00,WeatherTracker,2013-05-15 20:40:00,
2013-05-15 15:45:00,74.4,65.2,30.01,SSE,163,0.0,10.0,73,0.00,,,0.00,WeatherTracker,2013-05-15 20:45:00,
2013-05-15 15:50:00,74.6,65.0,30.01,SSE,161,2.0,9.0,72,0.00,,,0.00,WeatherTracker,2013-05-15 20:50:00,
2013-05-15 16:00:00,74.6,65.4,29.99,SSW,206,0.0,7.0,73,0.00,,,0.00,WeatherTracker,2013-05-15 21:00:00,
2013-05-15 16:05:00,74.6,65.0,29.99,ESE,121,0.0,7.0,72,0.00,,,0.00,WeatherTracker,2013-05-15 21:05:00,
2013-05-15 16:15:00,74.7,65.1,29.98,SSE,150,0.0,7.0,72,0.00,,,0.00,WeatherTracker,2013-05-15 21:15:00,
2013-05-15 16:20:00,74.7,65.1,29.98,SSW,196,0.0,10.0,72,0.00,,,0.00,WeatherTracker,2013-05-15 21:20:00,
2013-05-15 16:30:00,74.6,65.0,29.98,SSW,196,0.0,11.0,72,0.00,,,0.00,WeatherTracker,2013-05-15 21:30:00,
2013-05-15 16:35:00,74.6,64.6,29.98,South,178,3.0,11.0,71,0.00,,,0.00,WeatherTracker,2013-05-15 21:35:00,
2013-05-15 16:40:00,74.4,64.8,29.98,South,188,3.0,7.0,72,0.00,,,0.00,WeatherTracker,2013-05-15 21:40:00,
2013-05-15 16:51:00,74.4,65.6,29.98,SSW,209,0.0,6.0,74,0.00,,,0.00,WeatherTracker,2013-05-15 21:51:00,
2013-05-15 17:00:00,74.6,65.8,29.99,SSE,149,0.0,2.0,74,0.00,,,0.00,WeatherTracker,2013-05-15 22:00:00,